Regional Weather Roundup
Issued by NWS

Home | Current Version | Previous Version | Graphics & Text | Print | Product List | Glossary On
Versions: 1 2 3 4 5 6 7 8 9 10 11 12 13 14 15 16 17 18 19 20 21 22 23 24 25 26 27 28 29 30 31 32 33 34 35 36 37 38 39 40 41 42 43 44 45 46 47 48 49 50
016
ASUS43 KMKX 262011
RWRWI

WISCONSIN REGIONAL WEATHER ROUNDUP
NATIONAL WEATHER SERVICE MILWAUKEE/SULLIVAN WI
300 PM CDT FRI MAY 26 2017

NOTE: "FAIR" INDICATES FEW OR NO CLOUDS BELOW 12,000 FEET WITH NO
SIGNIFICANT WEATHER AND/OR OBSTRUCTIONS TO VISIBILITY.

WIZ001-002-006>008-014>016-023>028-262100-
NORTHWEST WISCONSIN

CITY           SKY/WX    TMP DP  RH WIND       PRES   REMARKS
SUPERIOR ARPT  NOT AVBL
ASHLAND        CLOUDY    58  51  78 CALM      29.74F
HAYWARD        CLOUDY    71  53  52 S14       29.75F
SIREN          MOSUNNY   73  54  51 SW13      29.73S
CUMBERLAND     CLOUDY    70  55  60 S10G17    29.75F
RICE LAKE      CLOUDY    71  52  50 S14       29.77F
CHETEK         CLOUDY    71  56  58 S10G16    29.76F
LADYSMITH      CLOUDY    70  55  58 S8        29.79S
EAU CLAIRE     CLOUDY    72  54  53 S10       29.76F
MENOMONIE      CLOUDY    74  56  54 S8        29.77S
NEW RICHMOND   MOSUNNY   74  56  52 S10G18    29.75S
OSCEOLA        SUNNY     76  57  51 S9        29.76S
$$

WIZ003>005-009-010-017-018-262100-
NORTH CENTRAL WISCONSIN

CITY           SKY/WX    TMP DP  RH WIND       PRES   REMARKS
MANITOWISH WTR PTSUNNY   68  54  60 S14G21    29.79S
ARBOR VITAE    LGT RAIN  67  57  69 S8        29.80F
WOODRUFF       LGT RAIN  67  57  69 S8        29.80F
RHINELANDER    CLOUDY    69  50  50 S10       29.82F
EAGLE RIVER    RAIN      64  53  68 SE5       29.81S
LAND O LAKES   CLOUDY    67  52  58 SE7       29.83S
PHILLIPS       PTSUNNY   67  56  67 S10       29.79S
TOMAHAWK       CLOUDY    67  54  63 SE3       29.81S
MEDFORD        PTSUNNY   68  55  64 S7        29.80F
MERRILL        CLOUDY    70  55  59 S8        29.82S
$$

WIZ029-030-035-036-043>047-262100-
CENTRAL WISCONSIN

CITY           SKY/WX    TMP DP  RH WIND       PRES   REMARKS
WAUSAU         CLOUDY    70  55  59 S9        29.80F
MOSINEE        MOSUNNY   72  55  56 S9        29.83S
MARSHFIELD     CLOUDY    72  54  53 S15       29.79F
STEVENS POINT  CLOUDY    69  53  55 SE13      29.82S
WAUPACA        CLOUDY    73  57  57 SE7       29.83S
WAUTOMA        CLOUDY    71  56  58 S8        29.82F
WISC RAPIDS    CLOUDY    72  54  53 S10       29.82S
CAMP DOUGLAS   CLOUDY    70  55  60 S9        29.81F
$$

WIZ011>013-019>022-031-037>040-048>050-262100-
NORTHEAST WISCONSIN

CITY           SKY/WX    TMP DP  RH WIND       PRES   REMARKS
ANTIGO         CLOUDY    68  56  66 S9        29.83S
SHAWANO        CLOUDY    73  54  52 S6        29.83S
OCONTO         CLOUDY    67  55  64 SE9       29.84R
STURGEON BAY   MOSUNNY   63  52  67 SE7       29.86S
GREEN BAY      CLOUDY    69  60  73 SE12      29.83S
MANITOWOC      CLOUDY    60  52  74 S6        29.87R
APPLETON       PTSUNNY   70  52  52 SE8       29.83R
CLINTONVILLE   CLOUDY    70  50  49 S9        29.83S
OSHKOSH        CLOUDY    69  56  62 E9        29.83R
$$

WIZ032>034-041-042-053>061-262100-
SOUTHWEST WISCONSIN

CITY           SKY/WX    TMP DP  RH WIND       PRES   REMARKS
LA CROSSE      CLOUDY    72  56  57 S12       29.79F
SPARTA         CLOUDY    70  56  62 S7        29.81F
VIROQUA        CLOUDY    66  54  64 SW10      29.82F
BOSCOBEL       CLOUDY    65  57  75 VRB3      29.83S
PRAIRIE DU CHI CLOUDY    66  57  74 SE8       29.81F
PLATTEVILLE    PTSUNNY   61  61  98 NE3       29.84R
$$

WIZ056-057-062-063-064-067-068-262100-
SOUTH CENTRAL WISCONSIN

CITY           SKY/WX    TMP DP  RH WIND       PRES   REMARKS
REEDSBURG      CLOUDY    65  56  70 CALM      29.83S
BARABOO/DELLS  CLOUDY    66  53  63 S9        29.82F
LONE ROCK      CLOUDY    63  54  72 S8        29.83S
MINERAL POINT  DRIZZLE   61  59  94 CALM      29.83R
MADISON        LGT RAIN  64  58  80 SE3       29.82F
MIDDLETON      CLOUDY    63  60  91 W6        29.83F
WATERTOWN      CLOUDY    66  56  71 SE6       29.84S
MONROE         RAIN      61  59  94 SE3       29.82F
JANESVILLE     LGT RAIN  64  63  94 E7        29.83S
$$

WIZ051-052-058>065-066-070>072-262100-
SOUTHEAST WISCONSIN

CITY           SKY/WX    TMP DP  RH WIND       PRES   REMARKS
MILWAUKEE      CLOUDY    61  55  81 E5        29.86S
WAUKESHA       MOSUNNY   63  52  67 SE9       29.86S
MILWAUKEE/TIMM PTSUNNY   61  50  67 S5        29.87R
RACINE         CLOUDY    59  51  75 E6        29.87S
KENOSHA        CLOUDY    61  52  72 E6        29.86S
FOND DU LAC    CLOUDY    70  53  54 SE8       29.84R
SHEBOYGAN      CLOUDY    62  55  77 S5        29.86R
WEST BEND      PTSUNNY   63  54  72 SE7       29.85S
JUNEAU         CLOUDY    67  56  66 SE9       29.85S
$$

LSZ147-162-262100-
LAKE SUPERIOR

STATION/POSITION TIME  TEMP    WIND        PRES    WAVE
                       AIR SEA DIR/SP/G            HT/PER
                 (UTC) (F)     (DEG/KT/KT) (MB)    (FT/S)
W MID LAKE BUOY  1850   43 37   40/  8/ 10 1008.7S   0
DEVILS ISLAND    2000   52     120/  4/  6 1007.1F
PORT WING        1940   43      20/ 13/ 16 1006.4F
SAXON HARBOR     1940   51      CALM  /  4 1007.1S
$$

LMZ867-665-643>646-262100-
LAKE MICHIGAN

STATION/POSITION TIME  TEMP    WIND        PRES    WAVE
                       AIR SEA DIR/SP/G            HT/PER
                 (UTC) (F)     (DEG/KT/KT) (MB)    (FT/S)
CHAMBERS ISLAND  1940   60     350/  4/  5 1010.2S
N MID LAKE BUOY  1950   43 42  200/  6/  6 1012.1F   0
NORTHPORT PIER   1940   60     150/  6/  9 1010.8S
KEWAUNEE LAKESHO 1948   49     160/  4/  5 1011.0F
SHEBOYGAN LAKESH 2000   49     170/  6/  7 1011.1S
PORT WASHINGTON  1940   53     180/  4/  6 1012.5S
ATWATER BUOY     1909   46     140/  2/  2 1011.8R
MILWAUKEE LAKESH 1950   48      40/  2/  2   N/A
S MID LAKE BUOY  1850   49 47     CALM     1011.6R   1
KENOSHA   LAKESH 2000   50        CALM     1011.2
$$

TC  - TEMPERATURE IN CELSIUS
VSB - VISIBILITY IN STATUTE MILES
WCI - WIND CHILL INDEX
HX  - HEAT INDEX





USA.gov is the U.S. government's official web portal to all federal, state and local government web resources and services.